Location: Newark
(1.4692°S, 78.8175°W)
Time: 12:08:19
(UTC+00:00)

Envisat - Visible Passes

Search period start: 21 March 2019 00:00
Search period end: 31 March 2019 00:00
Orbit: 764 x 766 km, 98.2° (Epoch: 21 March)

Date Brightness Start Highest point End Pass type
(mag) Time Alt. Az. Time Alt. Az. Time Alt. Az.
21 Mar 3.9 00:41:24 10° S 00:46:18 49° WSW 00:51:11 10° NNW visible
22 Mar 3.0 00:04:40 10° SSE 00:09:39 57° ENE 00:14:36 10° N visible
23 Mar 5.2 01:07:44 10° SSW 01:11:44 24° WSW 01:15:44 10° NW visible
24 Mar 3.3 00:30:04 10° S 00:35:07 68° WSW 00:40:08 10° NNW visible
24 Mar 3.4 23:53:41 10° SSE 23:58:28 41° ENE 00:03:13 10° N visible
25 Mar 6.1 01:35:52 10° WSW 01:37:10 11° WSW 01:38:28 10° W visible
26 Mar 4.7 00:56:05 10° SSW 01:00:34 32° WSW 01:05:02 10° NW visible
27 Mar 2.9 00:18:50 10° SSE 00:23:56 88° ENE 00:29:00 10° NNW visible
27 Mar 3.7 23:42:50 10° SE 23:47:16 31° ENE 23:51:40 10° NNE visible
28 Mar 5.8 01:23:05 10° SW 01:26:00 15° WSW 01:28:54 10° WNW visible
29 Mar 4.1 00:44:35 10° S 00:49:23 43° WSW 00:54:10 10° NNW visible
30 Mar 2.9 00:07:42 10° SSE 00:12:44 65° ENE 00:17:44 10° N visible
